Weather History for KDUB - February, 2014

Change the Weather History Date:

Tuesday, February 18, 2014

  Actual Average (KJAC) Record (KJAC)
Temperature  
Mean Temperature 28 °F -  
Max Temperature 32 °F 32 °F 48 °F (1977)
Min Temperature 23 °F 7 °F -25 °F (1993)
Degree Days  
Heating Degree Days 38    
Moisture  
Dew Point 16 °F    
Average Humidity 61    
Maximum Humidity 100    
Minimum Humidity 47    
Precipitation  
Precipitation 0.00 in - - ()
Sea Level Pressure  
Sea Level Pressure 29.86 in    
Wind  
Wind Speed 22 mph (NW)    
Max Wind Speed 34 mph    
Max Gust Speed 53 mph    
Visibility 8 miles    
Events Snow    
Averages and records for this station are not official NWS values.
T = Trace of Precipitation, MM = Missing Value Source: NWS Daily Summary

Daily Weather History Graph

Daily Weather History Graph

Search for Another Location

Airport or City:

Trip Planner

Search our weather history database for the weather conditions in past years. The results will help you decide how hot, cold, wet, or windy it might be!

Date:

Astronomy

Feb. 18, 2014 Rise Set
Actual Time 7:12 AM MST 5:53 PM MST
Civil Twilight 6:43 AM MST 6:22 PM MST
Nautical Twilight 6:10 AM MST 6:56 PM MST
Astronomical Twilight 5:36 AM MST 7:29 PM MST
Moon 9:58 PM MST (2/18) 8:39 AM MST (2/18)
Length of Visible Light 11h 39m
Length of Day
10h 40m
Waning Gibbous, 87% of the Moon is Illuminated
Feb 18
Waning Gibbous
Feb 22
Last Quarter
Mar 1
New
Mar 8
First Quarter
Mar 16
Full

Hourly Weather History & Observations

Time (MST) Temp. Windchill Dew Point Humidity Pressure Visibility Wind Dir Wind Speed Gust Speed Precip Events Conditions
12:15 AM 32.0 °F 19.2 °F 15.8 °F 51% 29.72 in 10.0 mi WNW 23.0 mph 29.9 mph N/A   Overcast
12:35 AM 32.0 °F 21.2 °F 15.8 °F 51% 29.72 in 10.0 mi WNW 16.1 mph 27.6 mph N/A   Overcast
12:55 AM 30.2 °F 17.8 °F 17.6 °F 60% 29.70 in 10.0 mi WNW 19.6 mph 29.9 mph N/A   Overcast
1:15 AM 30.2 °F 16.8 °F 15.8 °F 55% 29.69 in 10.0 mi WNW 23.0 mph 29.9 mph N/A   Overcast
1:35 AM 32.0 °F 21.6 °F 14.0 °F 48% 29.69 in 10.0 mi WNW 15.0 mph 32.2 mph N/A   Overcast
1:55 AM 32.0 °F 18.9 °F 14.0 °F 48% 29.67 in 10.0 mi WNW 24.2 mph 40.3 mph N/A   Overcast
2:15 AM 32.0 °F 17.9 °F 14.0 °F 48% 29.67 in 10.0 mi WNW 28.8 mph 38.0 mph N/A   Overcast
2:35 AM 32.0 °F 17.4 °F 14.0 °F 48% 29.66 in 10.0 mi WNW 31.1 mph 41.4 mph N/A   Overcast
2:55 AM 32.0 °F 17.4 °F 14.0 °F 48% 29.65 in 10.0 mi West 31.1 mph 44.9 mph N/A   Mostly Cloudy
3:15 AM 32.0 °F 16.7 °F 14.0 °F 48% 29.64 in 10.0 mi WNW 34.5 mph 46.0 mph N/A   Overcast
3:35 AM 32.0 °F 17.2 °F 14.0 °F 48% 29.65 in 10.0 mi WNW 32.2 mph 52.9 mph N/A   Overcast
3:55 AM 30.2 °F 15.2 °F 17.6 °F 60% 29.67 in 7.0 mi WNW 29.9 mph 44.9 mph N/A   Overcast
4:15 AM 28.4 °F 13.8 °F 21.2 °F 74% 29.68 in 2.5 mi NW 25.3 mph 34.5 mph N/A Snow Light Snow
4:35 AM 28.4 °F 15.4 °F 23.0 °F 80% 29.70 in 2.0 mi WNW 19.6 mph 27.6 mph N/A Snow Light Snow
4:55 AM 28.4 °F 12.3 °F 23.0 °F 80% 29.71 in 1.8 mi WNW 32.2 mph 40.3 mph N/A Snow Light Snow
5:15 AM 28.4 °F 18.0 °F 23.0 °F 80% 29.74 in 3.0 mi NW 12.7 mph 20.7 mph N/A Snow Light Snow
5:35 AM 26.6 °F 10.6 °F 24.8 °F 93% 29.75 in 0.8 mi NNW 28.8 mph 34.5 mph N/A Snow Snow
5:55 AM 24.8 °F 9.0 °F 23.0 °F 93% 29.78 in 0.2 mi NW 25.3 mph 34.5 mph N/A Snow Heavy Snow
6:15 AM 23.0 °F 6.3 °F 23.0 °F 100% 29.80 in 0.2 mi NW 26.5 mph 34.5 mph N/A Snow Heavy Snow
6:35 AM 23.0 °F 4.9 °F 21.2 °F 93% 29.82 in 0.5 mi NW 32.2 mph 40.3 mph N/A Snow Snow
6:55 AM 23.0 °F 7.6 °F 19.4 °F 86% 29.83 in 1.2 mi NW 21.9 mph 35.7 mph N/A Snow Light Snow
7:15 AM 23.0 °F 6.9 °F 17.6 °F 80% 29.85 in 1.2 mi NW 24.2 mph 38.0 mph N/A   Haze
7:35 AM 23.0 °F - 17.6 °F 80% 29.87 in 1.2 mi North - - N/A Snow Light Snow
7:55 AM 23.0 °F 6.9 °F 17.6 °F 80% 29.89 in 0.8 mi WNW 24.2 mph - N/A Snow Light Snow
8:15 AM 23.0 °F - 15.8 °F 74% 29.90 in 1.2 mi North - - N/A Snow Light Snow
8:35 AM 23.0 °F 5.7 °F 14.0 °F 68% 29.92 in 2.0 mi WNW 28.8 mph - N/A   Haze
8:55 AM 24.8 °F 9.6 °F 12.2 °F 59% 29.94 in 5.0 mi NW 23.0 mph 31.1 mph N/A   Haze
9:15 AM 24.8 °F 8.1 °F 12.2 °F 59% 29.94 in 1.5 mi NW 28.8 mph 38.0 mph N/A   Haze
9:35 AM 24.8 °F 9.0 °F 12.2 °F 59% 29.95 in 1.5 mi NW 25.3 mph - N/A   Haze
9:55 AM 26.6 °F 12.4 °F 12.2 °F 55% 29.96 in 7.0 mi NW 21.9 mph 29.9 mph N/A   Mostly Cloudy
10:15 AM 26.6 °F 11.7 °F 10.4 °F 51% 29.96 in 7.0 mi NW 24.2 mph 35.7 mph N/A   Scattered Clouds
10:35 AM 26.6 °F 11.1 °F 10.4 °F 51% 29.97 in 10.0 mi NW 26.5 mph 33.4 mph N/A   Clear
10:55 AM 28.4 °F 15.1 °F 10.4 °F 47% 29.97 in 10.0 mi NNW 20.7 mph 33.4 mph N/A   Clear
11:15 AM 28.4 °F 15.4 °F 12.2 °F 51% 29.97 in 10.0 mi NNW 19.6 mph 28.8 mph N/A   Clear
11:35 AM 28.4 °F 15.4 °F 12.2 °F 51% 29.97 in 10.0 mi NNW 19.6 mph 26.5 mph N/A   Clear
11:55 AM 30.2 °F 17.4 °F 14.0 °F 51% 29.97 in 10.0 mi WNW 20.7 mph 31.1 mph N/A   Scattered Clouds
12:15 PM 30.2 °F 15.9 °F 17.6 °F 60% 29.96 in 7.0 mi WNW 26.5 mph 32.2 mph N/A   Mostly Cloudy
12:35 PM 32.0 °F 18.6 °F 17.6 °F 55% 29.97 in 7.0 mi WNW 25.3 mph 32.2 mph N/A   Mostly Cloudy
12:55 PM 32.0 °F 21.2 °F 17.6 °F 55% 29.96 in 7.0 mi NW 16.1 mph 32.2 mph N/A Snow Light Snow
1:15 PM 32.0 °F 18.9 °F 17.6 °F 55% 29.94 in 10.0 mi NW 24.2 mph 28.8 mph N/A   Mostly Cloudy
1:35 PM 32.0 °F 21.2 °F 15.8 °F 51% 29.94 in 10.0 mi NW 16.1 mph 28.8 mph N/A   Scattered Clouds
1:55 PM 32.0 °F 19.8 °F 17.6 °F 55% 29.94 in 10.0 mi NW 20.7 mph 31.1 mph N/A   Mostly Cloudy
2:15 PM 32.0 °F 21.2 °F 17.6 °F 55% 29.95 in 10.0 mi NW 16.1 mph 26.5 mph N/A   Overcast
2:35 PM 32.0 °F 19.8 °F 17.6 °F 55% 29.94 in 10.0 mi NNW 20.7 mph 28.8 mph N/A   Overcast
2:55 PM 32.0 °F 19.5 °F 17.6 °F 55% 29.94 in 10.0 mi NW 21.9 mph 29.9 mph N/A   Mostly Cloudy
3:15 PM 32.0 °F 20.5 °F 15.8 °F 51% 29.95 in 10.0 mi NW 18.4 mph 27.6 mph N/A   Mostly Cloudy
3:35 PM 32.0 °F 19.5 °F 17.6 °F 55% 29.94 in 10.0 mi NW 21.9 mph 27.6 mph N/A   Overcast
3:55 PM 32.0 °F 19.8 °F 15.8 °F 51% 29.94 in 10.0 mi NW 20.7 mph 26.5 mph N/A   Overcast
4:15 PM 32.0 °F 20.1 °F 15.8 °F 51% 29.94 in 10.0 mi NW 19.6 mph 31.1 mph N/A   Overcast
4:35 PM 30.2 °F 16.5 °F 14.0 °F 51% 29.95 in 10.0 mi NW 24.2 mph 31.1 mph N/A   Overcast
4:55 PM 30.2 °F 18.9 °F 14.0 °F 51% 29.95 in 10.0 mi NW 16.1 mph 31.1 mph N/A   Overcast
5:15 PM 28.4 °F 16.6 °F 14.0 °F 55% 29.95 in 10.0 mi WNW 16.1 mph 24.2 mph N/A   Mostly Cloudy
5:35 PM 28.4 °F 15.1 °F 14.0 °F 55% 29.95 in 10.0 mi WNW 20.7 mph 32.2 mph N/A   Scattered Clouds
5:55 PM 28.4 °F 15.1 °F 14.0 °F 55% 29.94 in 10.0 mi WNW 20.7 mph 26.5 mph N/A   Clear
6:15 PM 26.6 °F 14.3 °F 14.0 °F 59% 29.94 in 10.0 mi NW 16.1 mph 21.9 mph N/A   Clear
6:35 PM 26.6 °F 13.8 °F 14.0 °F 59% 29.94 in 10.0 mi NW 17.3 mph 24.2 mph N/A   Clear
6:55 PM 26.6 °F 13.1 °F 14.0 °F 59% 29.93 in 10.0 mi NW 19.6 mph 23.0 mph N/A   Clear
7:15 PM 26.6 °F 13.1 °F 14.0 °F 59% 29.93 in 10.0 mi WNW 19.6 mph 29.9 mph N/A   Clear
7:35 PM 26.6 °F 12.7 °F 14.0 °F 59% 29.91 in 10.0 mi WNW 20.7 mph 31.1 mph N/A   Clear
7:55 PM 26.6 °F 14.7 °F 14.0 °F 59% 29.91 in 10.0 mi NW 15.0 mph 21.9 mph N/A   Scattered Clouds
8:15 PM 28.4 °F 16.6 °F 14.0 °F 55% 29.90 in 10.0 mi NW 16.1 mph 24.2 mph N/A   Overcast
8:35 PM 26.6 °F 14.3 °F 15.8 °F 64% 29.89 in 10.0 mi NW 16.1 mph 24.2 mph N/A   Overcast
8:55 PM 26.6 °F 13.8 °F 17.6 °F 69% 29.89 in 10.0 mi NNW 17.3 mph 23.0 mph N/A   Overcast
9:15 PM 26.6 °F 14.3 °F 17.6 °F 69% 29.88 in 10.0 mi NNW 16.1 mph 25.3 mph N/A   Overcast
9:35 PM 26.6 °F 14.7 °F 17.6 °F 69% 29.87 in 10.0 mi NNW 15.0 mph 25.3 mph N/A   Overcast
9:55 PM 26.6 °F 14.3 °F 17.6 °F 69% 29.87 in 10.0 mi NW 16.1 mph 21.9 mph N/A   Overcast
10:15 PM 26.6 °F 14.7 °F 17.6 °F 69% 29.85 in 10.0 mi NNW 15.0 mph - N/A   Overcast
10:35 PM 26.6 °F 14.3 °F 17.6 °F 69% 29.84 in 10.0 mi NNW 16.1 mph - N/A   Mostly Cloudy
10:55 PM 28.4 °F 19.1 °F 17.6 °F 64% 29.84 in 10.0 mi NW 10.4 mph - N/A   Scattered Clouds
11:15 PM 28.4 °F 16.2 °F 17.6 °F 64% 29.83 in 10.0 mi NNW 17.3 mph - N/A   Mostly Cloudy
11:35 PM 28.4 °F 17.0 °F 17.6 °F 64% 29.82 in 10.0 mi NNW 15.0 mph 19.6 mph N/A   Overcast
11:55 PM 28.4 °F 16.6 °F 17.6 °F 64% 29.80 in 10.0 mi NNW 16.1 mph 21.9 mph N/A   Mostly Cloudy